Skip Page Navigation
NASA JPL Caltech
NASA Logo - Jet Propulsion Laboratory + View the NASA Portal
+ Center for Near-Earth Object Studies
JPL Home Earth Solar System Stars & Galaxies Technology
JPL Solar System Dynamics
BODIES ORBITS EPHEMERIDES TOOLS PHYSICAL DATA DISCOVERY FAQ SITE MAP
IMPORTANT: The SSD Announcement email list is now available. Major changes are coming in the near future, including possible hostname and/or URL changes. To be notified of such changes, subscribe to this email list.

Please visit this page for more details.


JPL Small-Body Database Browser
Search: [ help ]  
469349 (2000 UF73)
Classification: Main-belt Asteroid          SPK-ID: 2469349
Ephemeris | Orbit Diagram | Orbital Elements | Mission Design | Physical Parameters | Discovery Circumstances ]

[ show orbit diagram ]
Orbital Elements at Epoch 2458600.5 (2019-Apr-27.0) TDB
Reference: JPL 9 (heliocentric ecliptic J2000)
 Element Value Uncertainty (1-sigma)   Units 
e .2578660309847171 1.5128e-07  
a 2.568097432095392 9.0248e-08 au
q 1.905872340098909 4.4904e-07 au
i 6.371600276089122 1.0158e-05 deg
node 15.36275859626538 0.00010312 deg
peri 13.43505995565522 0.00019193 deg
M 184.9965493715926 0.00015958 deg
tp 2459331.234787505317
(2021-Apr-26.73478751)
0.00070451 TDB
period 1503.196208744997
4.12
7.9238e-05
2.169e-07
d
yr
n .2394896939638774 1.2624e-08 deg/d
Q 3.230322524091874 1.1352e-07 au
  Orbit Determination Parameters
   # obs. used (total)      123  
   data-arc span      6343 days (17.37 yr)  
   first obs. used      2000-10-25  
   last obs. used      2018-03-08  
   planetary ephem.      DE431  
   SB-pert. ephem.      SB431-N16  
   condition code      0  
   norm. resid. RMS      .55486  
   source      ORB  
   producer      Otto Matic  
   solution date      2019-Jul-13 14:02:16  

Additional Information
 Earth MOID = .910656 au 
 Jupiter MOID = 2.22687 au 
 T_jup = 3.375 
[ show covariance matrix ]

Ephemeris | Orbit Diagram | Orbital Elements | Mission Design | Physical Parameters | Discovery Circumstances ]

Physical Parameter Table
Parameter Symbol Value Units Sigma Reference Notes
absolute magnitude H 17.2   n/a MPO437768  

469349 (2000 UF73)          Discovered 2000-Oct-25 by LINEAR at Socorro
Reference: Last Updated: 2016-08-22

Alternate Designations
 2000 UF73 = 2004 TX34 
Ephemeris | Orbit Diagram | Orbital Elements | Mission Design | Physical Parameters | Discovery Circumstances ]
ABOUT SSD CREDITS/AWARDS PRIVACY/COPYRIGHT GLOSSARY LINKS
FirstGov
(server date/time)  
NASA Home Page
Site Manager:   Ryan S. Park
Webmaster  Alan B. Chamberlin